Погода в Спицине

Россия / Псковская область     58°31′35″N   27°51′33″E
темп.,
°C
ветер,
м/с
пор.,
м/с
влажн.,
%
обл.,
%
осадки,
мм/ч
давл.,
гПа
погр.,
м
4 марта, чт
чт400:00+2з71590100 0.1 1006531
03:000ссз3598100 1.4 1006232
06:00−1ссз4791100 0.1 1004210
09:00−3сз479463 0.1 1005197
12:00−2ссз588755 0.0 1005640
15:00−2ссз797974 0.1 1006981
18:00−3ссз6107898 0.1 1007777
21:00−4сз358362 0.1 1008108
5 марта, пт
пт500:00−4зсз348351 0.0 100891
03:00−4сз229266 0.1 100990
06:00−4с4790100 1.1 1009658
09:00−6ссз598695 1.1 1010378
12:00−5ссз577973 0.0 1012805
15:00−4ссз587579 0.0 1014809
18:00−6ссз488349 0.0 1016332
21:00−7сз358438 0.0 1018110
6 марта, сб
сб600:00−6сз478974 0.0 1019216
03:00−7зсз348744 0.0 102082
06:00−8зсз468839 0.0 1020104
09:00−8зюз468720 0.0 1019148
12:00−4юз6117182 0.0 1016554
15:00−2юз10169291 0.4 1012894
18:000зюз102068100 0.5 1007960
21:00−1зюз112085100 0.5 1003921
7 марта, вс
вс700:00−1зюз122095100 0.3 998816
03:00−2зсз81484100 1.8 997709
06:00−6зсз9166067 0.2 997990
09:00−7з8156133 0.2 998756
12:00−4з9165840 0.0 9961116
15:00−2з10166271 0.1 9951265
18:00−4ссз101570100 0.4 9961047
21:00−6ссз9148699 0.6 10011003
8 марта, пн
пн800:00−8ссз61186100 0.1 1005659
03:00−8ссз699199 0.3 1008671
06:00−9ссз71189100 0.4 1010801
09:00−10с61187100 0.5 1013866
12:00−9ссз7107899 0.0 1015872
15:00−8ссз7107693 0.1 1017994
18:00−9ссз5107766 0.0 1019379
21:00−11с377933 0.0 1021206